{"data":{"norad_id":38356,"epoch":"2026-05-24T18:15:57.616128Z","epoch_age_seconds":89458,"freshness":"FRESH","line1":"1 38356U 12030A   26144.76108352 -.00000059  00000+0  00000+0 0  9993","line2":"2 38356   0.0172 305.1048 0003180 124.2869 252.9603  1.00276615 50215","mean_motion":1.00276615,"eccentricity":0.000318,"inclination_deg":0.0172,"raan_deg":305.1048,"arg_perigee_deg":124.2869,"mean_anomaly_deg":252.9603,"bstar":0,"rev_number":5021,"period_min":1436.0277318894,"perigee_km":35771.833037005,"apogee_km":35798.648945407,"semimajor_km":42163.377991206,"source":"CELESTRAK","updated_at":"2026-05-25T13:38:14.331500Z"}}